START_TIME,STEP,MOV.,M15,t_acc.,M20,t_acc.
1979-07-03 00:00:44.760 ,0,0,0.,24.0,0.,24.0
1979-07-03 00:01:08.760 ,1,1,0.,24.0,0.,24.0
1979-07-03 00:01:32.760 ,1,0,0.,24.0,0.,24.0
1979-07-03 00:01:56.760 ,2,1,0.,24.0,0.,24.0
1979-07-03 00:02:20.760 ,2,0,0.,24.0,0.,24.0
1979-07-03 00:02:44.760 ,3,1,0.,24.0,0.,24.0
1979-07-03 00:03:08.760 ,3,0,0.,24.0,0.,24.0
1979-07-03 00:03:32.760 ,4,1,0.,24.0,0.,24.0
1979-07-03 00:03:56.760 ,4,0,0.,24.0,0.,24.0
1979-07-03 00:04:20.760 ,5,1,0.,24.0,0.,24.0
1979-07-03 00:04:44.760 ,5,0,0.,24.0,0.,24.0
1979-07-03 00:05:08.760 ,6,1,0.,24.0,0.,24.0
1979-07-03 00:05:32.760 ,6,0,0.,24.0,0.,24.0
1979-07-03 00:05:56.760 ,7,1,0.,24.0,0.,24.0
1979-07-03 00:06:20.760 ,7,0,0.,24.0,0.,24.0
1979-07-03 00:06:44.760 ,7,1,0.,24.0,0.,24.0
1979-07-03 00:07:08.760 ,7,0,0.,24.0,0.,24.0
1979-07-03 00:07:32.760 ,6,1,0.,24.0,0.,24.0
1979-07-03 00:07:56.760 ,6,0,0.,24.0,0.,24.0
1979-07-03 00:08:20.760 ,5,1,0.,24.0,0.,24.0
1979-07-03 00:08:44.760 ,5,0,0.,24.0,0.,24.0
1979-07-03 00:09:08.760 ,4,1,0.,24.0,0.,24.0
1979-07-03 00:09:32.760 ,4,0,0.,24.0,0.,24.0
1979-07-03 00:09:56.760 ,3,1,0.,24.0,0.,24.0
1979-07-03 00:10:20.760 ,3,0,0.,24.0,0.,24.0
1979-07-03 00:10:44.750 ,2,1,0.,24.0,0.,24.0
1979-07-03 00:11:08.750 ,2,0,0.,24.0,0.,24.0
1979-07-03 00:11:32.750 ,1,1,0.,24.0,0.,24.0
1979-07-03 00:11:56.750 ,1,0,0.,24.0,0.,24.0
1979-07-03 00:12:20.750 ,0,1,0.,24.0,0.,24.0
1979-07-03 00:12:44.750 ,0,0,0.,24.0,0.,24.0
1979-07-03 00:13:08.750 ,0,1,0.,24.0,0.,24.0
1979-07-03 00:13:32.750 ,0,0,0.,24.0,0.,24.0
1979-07-03 00:13:56.750 ,1,1,0.,24.0,0.,24.0
1979-07-03 00:14:20.750 ,1,0,0.,24.0,0.,24.0
1979-07-03 00:14:44.750 ,2,1,0.,24.0,0.,24.0
1979-07-03 00:15:08.750 ,2,0,0.,24.0,0.,24.0
1979-07-03 00:15:32.750 ,3,1,0.,24.0,0.,24.0
1979-07-03 00:15:56.750 ,3,0,0.,24.0,0.,24.0
1979-07-03 00:16:20.750 ,4,1,0.,24.0,0.,24.0
1979-07-03 00:16:44.750 ,4,0,0.,24.0,0.,24.0
1979-07-03 00:17:08.750 ,5,1,0.,24.0,0.,24.0
1979-07-03 00:17:32.750 ,5,0,0.,24.0,0.,24.0
1979-07-03 00:17:56.750 ,6,1,0.,24.0,0.,24.0
1979-07-03 00:18:20.750 ,6,0,0.,24.0,0.,24.0
1979-07-03 00:18:44.750 ,7,0,0.,24.0,0.,24.0
1979-07-03 00:19:08.750 ,7,0,0.,24.0,0.,24.0
1979-07-03 00:19:32.750 ,3,1,0.,24.0,0.,24.0
1979-07-03 00:19:56.750 ,0,1,0.,24.0,0.,24.0
1979-07-03 00:20:20.750 ,4,1,0.,24.0,0.,24.0
1979-07-03 00:20:44.750 ,7,1,0.,24.0,0.,24.0
1979-07-03 00:21:08.750 ,3,1,0.,24.0,0.,24.0
1979-07-03 00:21:32.750 ,0,1,0.,24.0,0.,24.0
1979-07-03 00:21:56.750 ,4,1,0.,24.0,0.,24.0
1979-07-03 00:22:20.750 ,7,1,0.,24.0,0.,24.0
1979-07-03 00:22:44.750 ,3,1,0.,24.0,0.,24.0
1979-07-03 00:23:08.750 ,0,1,0.,24.0,0.,24.0
1979-07-03 00:23:32.750 ,4,1,0.,24.0,0.,24.0
1979-07-03 00:23:56.750 ,7,1,0.,24.0,0.,24.0
1979-07-03 00:24:20.750 ,3,1,0.,24.0,0.,24.0
1979-07-03 00:24:44.750 ,0,1,0.,24.0,0.,24.0
1979-07-03 00:25:08.750 ,4,1,0.,24.0,0.,24.0
1979-07-03 00:25:32.750 ,7,1,0.,24.0,0.,24.0
1979-07-03 00:25:56.750 ,3,1,0.,24.0,0.,24.0
1979-07-03 00:26:20.750 ,0,1,0.,24.0,0.,24.0
1979-07-03 00:26:44.750 ,4,1,0.,24.0,0.,24.0
1979-07-03 00:27:08.750 ,7,1,0.,24.0,0.,24.0
1979-07-03 00:27:32.750 ,3,1,0.,24.0,0.,24.0
1979-07-03 00:27:56.750 ,0,1,0.,24.0,0.,24.0
1979-07-03 00:28:20.750 ,4,1,0.,24.0,0.,24.0
1979-07-03 00:28:44.750 ,7,1,0.,24.0,0.,24.0
1979-07-03 00:29:08.750 ,3,1,0.,24.0,0.,24.0
1979-07-03 00:29:32.750 ,0,1,0.,24.0,0.,24.0
1979-07-03 00:29:56.750 ,0,0,0.,24.0,0.,24.0
1979-07-03 00:30:20.750 ,0,0,0.,24.0,0.,24.0
1979-07-03 00:30:44.750 ,5,1,0.,24.0,0.,24.0
1979-07-03 00:31:08.750 ,5,0,0.,24.0,0.,24.0
1979-07-03 00:32:20.750 ,0,0,0.,24.0,0.,24.0
1979-07-03 00:32:44.750 ,0,0,0.,24.0,0.,24.0
1979-07-03 00:33:08.750 ,2,1,0.,24.0,0.,24.0
1979-07-03 00:33:32.750 ,2,0,0.,24.0,0.,24.0
1979-07-03 00:33:56.750 ,1,1,0.,24.0,0.,24.0
1979-07-03 00:34:20.750 ,1,0,0.,24.0,0.,24.0
1979-07-03 00:34:44.750 ,0,1,0.,24.0,0.,24.0
1979-07-03 00:35:08.750 ,0,0,0.,24.0,0.,24.0
1979-07-03 00:35:32.750 ,0,1,0.,24.0,0.,24.0
1979-07-03 00:35:56.750 ,0,0,0.,24.0,0.,24.0
1979-07-03 00:36:20.750 ,1,1,0.,24.0,0.,24.0
1979-07-03 00:36:44.750 ,1,0,0.,24.0,0.,24.0
1979-07-03 00:37:08.750 ,2,1,0.,24.0,0.,24.0
1979-07-03 00:37:32.750 ,2,0,0.,24.0,0.,24.0
1979-07-03 00:37:56.750 ,3,1,0.,24.0,0.,24.0
1979-07-03 00:38:20.750 ,3,0,0.,24.0,0.,24.0
1979-07-03 00:38:44.750 ,4,1,0.,24.0,0.,24.0
1979-07-03 00:39:08.750 ,4,0,0.,24.0,0.,24.0
1979-07-03 00:39:32.750 ,5,1,0.,24.0,0.,24.0
1979-07-03 00:39:56.750 ,5,0,0.,24.0,0.,24.0
1979-07-03 00:40:20.750 ,6,1,0.,24.0,0.,24.0
1979-07-03 00:40:44.750 ,6,0,0.,24.0,0.,24.0
1979-07-03 00:41:08.750 ,7,1,0.,24.0,0.,24.0
1979-07-03 00:41:32.750 ,7,0,0.,24.0,0.,24.0
1979-07-03 00:41:56.750 ,7,1,0.,24.0,0.,24.0
1979-07-03 00:42:20.750 ,7,0,0.,24.0,0.,24.0
1979-07-03 00:42:44.750 ,6,1,0.,24.0,0.,24.0
1979-07-03 00:43:08.750 ,6,0,0.,24.0,0.,24.0
1979-07-03 00:43:32.750 ,5,1,0.,24.0,0.,24.0
1979-07-03 00:43:56.750 ,5,0,0.,24.0,0.,24.0
1979-07-03 00:45:08.750 ,0,0,0.,24.0,0.,24.0
1979-07-03 00:45:32.750 ,0,0,0.,24.0,0.,24.0
1979-07-03 00:46:44.750 ,0,0,0.,24.0,0.,24.0
1979-07-03 00:47:08.750 ,0,0,0.,24.0,0.,24.0
1979-07-03 00:47:32.750 ,0,1,0.,24.0,0.,24.0
1979-07-03 00:47:56.750 ,0,0,0.,24.0,0.,24.0
1979-07-03 00:48:20.750 ,0,1,0.,24.0,0.,24.0
1979-07-03 00:48:44.750 ,0,0,0.,24.0,0.,24.0
1979-07-03 00:49:08.750 ,1,1,0.,24.0,0.,24.0
1979-07-03 00:49:32.750 ,1,0,0.,24.0,0.,24.0
1979-07-03 00:49:56.750 ,2,1,0.,24.0,0.,24.0
1979-07-03 00:50:20.750 ,2,0,0.,24.0,0.,24.0
1979-07-03 00:50:44.750 ,3,1,0.,24.0,0.,24.0
1979-07-03 00:51:08.750 ,3,0,0.,24.0,0.,24.0
1979-07-03 00:51:32.750 ,4,1,0.,24.0,0.,24.0
1979-07-03 00:51:56.750 ,4,0,0.,24.0,0.,24.0
1979-07-03 00:52:20.750 ,5,1,0.,24.0,0.,24.0
1979-07-03 00:52:44.750 ,5,0,0.,24.0,0.,24.0
1979-07-03 00:53:08.750 ,6,1,0.,24.0,0.,24.0
1979-07-03 00:53:32.750 ,6,0,0.,24.0,0.,24.0
1979-07-03 00:53:56.750 ,7,1,0.,24.0,0.,24.0
1979-07-03 00:54:20.750 ,7,0,0.,24.0,0.,24.0
1979-07-03 00:54:44.750 ,7,1,0.,24.0,0.,24.0
1979-07-03 00:55:08.750 ,7,0,0.,24.0,0.,24.0
1979-07-03 00:55:32.750 ,6,1,0.,24.0,0.,24.0
1979-07-03 00:55:56.750 ,6,0,0.,24.0,0.,24.0
1979-07-03 00:56:20.750 ,5,1,0.,24.0,0.,24.0
1979-07-03 00:56:44.750 ,5,0,0.,24.0,0.,24.0
1979-07-03 00:57:08.750 ,4,1,0.,24.0,0.,24.0
1979-07-03 00:57:32.750 ,4,0,0.,24.0,0.,24.0
1979-07-03 00:57:56.750 ,3,1,0.,24.0,0.,24.0
1979-07-03 00:58:20.750 ,3,0,0.,24.0,0.,24.0
1979-07-03 00:58:44.750 ,2,1,0.,24.0,0.,24.0
1979-07-03 00:59:08.750 ,2,0,0.,24.0,0.,24.0
1979-07-03 00:59:32.750 ,1,1,0.,24.0,0.,24.0
1979-07-03 00:59:56.750 ,1,0,0.,24.0,0.,24.0
1979-07-03 01:00:20.750 ,0,1,0.,24.0,0.,24.0
1979-07-03 01:00:44.750 ,0,0,0.,24.0,0.,24.0
1979-07-03 01:01:08.750 ,0,1,0.,24.0,0.,24.0
1979-07-03 01:01:32.750 ,0,0,0.,24.0,0.,24.0
1979-07-03 01:01:56.750 ,1,1,0.,24.0,0.,24.0
1979-07-03 01:02:20.750 ,1,0,0.,24.0,0.,24.0
1979-07-03 01:02:44.750 ,2,1,0.,24.0,0.,24.0
1979-07-03 01:03:08.750 ,2,0,0.,24.0,0.,24.0
1979-07-03 01:03:32.750 ,3,1,0.,24.0,0.,24.0
1979-07-03 01:03:56.750 ,3,0,0.,24.0,0.,24.0
1979-07-03 01:04:20.750 ,4,1,0.,24.0,0.,24.0
1979-07-03 01:04:44.750 ,4,0,0.,24.0,0.,24.0
1979-07-03 01:05:08.750 ,5,1,0.,24.0,0.,24.0
1979-07-03 01:05:32.750 ,5,0,0.,24.0,1.,24.0
1979-07-03 01:05:56.750 ,6,1,0.,24.0,0.,24.0
1979-07-03 01:06:20.750 ,6,0,0.,24.0,0.,24.0
1979-07-03 01:06:44.750 ,7,0,0.,24.0,0.,24.0
1979-07-03 01:07:08.750 ,7,0,0.,24.0,0.,24.0
1979-07-03 01:07:32.750 ,3,1,0.,24.0,0.,24.0
1979-07-03 01:07:56.750 ,0,1,0.,24.0,0.,24.0
1979-07-03 01:08:20.750 ,4,1,0.,24.0,0.,24.0
1979-07-03 01:08:44.750 ,7,1,0.,24.0,0.,24.0
1979-07-03 01:09:08.750 ,3,1,0.,24.0,0.,24.0
1979-07-03 01:09:32.750 ,0,1,0.,24.0,0.,24.0
1979-07-03 01:09:56.750 ,4,1,0.,24.0,0.,24.0
1979-07-03 01:10:20.750 ,7,1,0.,24.0,0.,24.0
1979-07-03 01:10:44.750 ,3,1,0.,24.0,0.,24.0
1979-07-03 01:11:08.750 ,0,1,0.,24.0,0.,24.0
1979-07-03 01:11:32.750 ,4,1,0.,24.0,0.,24.0
1979-07-03 01:11:56.750 ,7,1,0.,24.0,0.,24.0
1979-07-03 01:12:20.750 ,3,1,0.,24.0,0.,24.0
1979-07-03 01:12:44.750 ,0,1,0.,24.0,0.,24.0
1979-07-03 01:13:08.750 ,4,1,0.,24.0,0.,24.0
1979-07-03 01:13:32.750 ,7,1,0.,24.0,0.,24.0
1979-07-03 01:13:56.750 ,3,1,0.,24.0,0.,24.0
1979-07-03 01:14:20.750 ,0,1,0.,24.0,0.,24.0
1979-07-03 01:14:44.750 ,4,1,0.,24.0,0.,24.0
1979-07-03 01:15:08.750 ,7,1,0.,24.0,0.,24.0
1979-07-03 01:15:32.750 ,3,1,0.,24.0,0.,24.0
1979-07-03 01:15:56.750 ,0,1,0.,24.0,0.,24.0
1979-07-03 01:16:20.750 ,4,1,0.,24.0,0.,24.0
1979-07-03 01:16:44.750 ,7,1,0.,24.0,0.,24.0
1979-07-03 01:17:08.750 ,3,1,0.,24.0,0.,24.0
1979-07-03 01:17:32.750 ,0,1,0.,24.0,0.,24.0
1979-07-03 01:17:56.750 ,0,0,0.,24.0,0.,24.0
1979-07-03 01:18:20.750 ,0,0,0.,24.0,0.,24.0
1979-07-03 01:18:44.750 ,5,1,0.,24.0,0.,24.0
1979-07-03 01:19:08.750 ,5,0,0.,24.0,0.,24.0
1979-07-03 01:19:32.750 ,4,1,0.,24.0,0.,24.0
1979-07-03 01:19:56.750 ,4,0,0.,24.0,0.,24.0
1979-07-03 01:20:20.750 ,3,1,0.,24.0,0.,24.0
1979-07-03 01:20:44.750 ,3,0,0.,24.0,0.,24.0
1979-07-03 01:21:08.750 ,2,1,0.,24.0,0.,24.0
1979-07-03 01:21:32.750 ,2,0,0.,24.0,0.,24.0
1979-07-03 01:21:56.750 ,1,1,0.,24.0,0.,24.0
1979-07-03 01:22:20.750 ,1,0,0.,24.0,0.,24.0
1979-07-03 01:22:44.750 ,0,1,0.,24.0,0.,24.0
1979-07-03 01:23:08.750 ,0,0,0.,24.0,0.,24.0
1979-07-03 01:23:32.750 ,0,1,0.,24.0,0.,24.0
1979-07-03 01:23:56.750 ,0,0,0.,24.0,0.,24.0
1979-07-03 01:24:20.750 ,1,1,0.,24.0,0.,24.0
1979-07-03 01:24:44.750 ,1,0,0.,24.0,0.,24.0
1979-07-03 01:25:08.750 ,2,1,0.,24.0,0.,24.0
1979-07-03 01:25:32.750 ,2,0,0.,24.0,0.,24.0
1979-07-03 01:25:56.750 ,3,1,0.,24.0,0.,24.0
1979-07-03 01:26:20.750 ,3,0,0.,24.0,0.,24.0
1979-07-03 01:26:44.750 ,4,1,0.,24.0,0.,24.0
1979-07-03 01:27:08.750 ,4,0,0.,24.0,0.,24.0
1979-07-03 01:27:32.750 ,5,1,0.,24.0,0.,24.0
1979-07-03 01:27:56.750 ,5,0,0.,24.0,0.,24.0
1979-07-03 01:28:20.750 ,6,1,0.,24.0,0.,24.0
1979-07-03 01:28:44.750 ,6,0,0.,24.0,0.,24.0
1979-07-03 01:29:08.750 ,7,1,0.,24.0,0.,24.0
1979-07-03 01:29:32.750 ,7,0,0.,24.0,0.,24.0
1979-07-03 01:29:56.750 ,7,1,0.,24.0,0.,24.0
1979-07-03 01:30:20.750 ,7,0,0.,24.0,0.,24.0
1979-07-03 01:30:44.750 ,6,1,0.,24.0,0.,24.0
1979-07-03 01:31:08.750 ,6,0,0.,24.0,0.,24.0
1979-07-03 01:31:32.750 ,5,1,0.,24.0,0.,24.0
1979-07-03 01:31:56.750 ,5,0,0.,24.0,0.,24.0
1979-07-03 01:32:20.750 ,4,1,0.,24.0,0.,24.0
1979-07-03 01:32:44.750 ,4,0,0.,24.0,0.,24.0
1979-07-03 01:33:08.750 ,3,1,0.,24.0,0.,24.0
1979-07-03 01:33:32.750 ,3,0,0.,24.0,0.,24.0
1979-07-03 01:33:56.750 ,2,1,0.,24.0,0.,24.0
1979-07-03 01:34:20.750 ,2,0,0.,24.0,0.,24.0
1979-07-03 01:34:44.750 ,1,1,0.,24.0,0.,24.0
1979-07-03 01:35:08.750 ,1,0,0.,24.0,0.,24.0
1979-07-03 01:35:32.750 ,0,1,0.,24.0,0.,24.0
1979-07-03 01:35:56.750 ,0,0,0.,24.0,0.,24.0
1979-07-03 01:36:20.750 ,0,1,0.,24.0,0.,24.0
1979-07-03 01:36:44.750 ,0,0,0.,24.0,0.,24.0
1979-07-03 01:37:08.750 ,1,1,0.,24.0,0.,24.0
1979-07-03 01:37:32.750 ,1,0,0.,24.0,0.,24.0
1979-07-03 01:37:56.750 ,2,1,0.,24.0,0.,24.0
1979-07-03 01:38:20.750 ,2,0,0.,24.0,0.,24.0
1979-07-03 01:38:44.750 ,3,1,0.,24.0,0.,24.0
1979-07-03 01:39:08.750 ,3,0,0.,24.0,0.,24.0
1979-07-03 01:39:32.750 ,4,1,0.,24.0,0.,24.0
1979-07-03 01:39:56.750 ,0,0,0.,24.0,0.,24.0
1979-07-03 01:40:26.750 ,0,0,0.,24.0,0.,24.0
1979-07-03 01:40:44.750 ,0,0,0.,24.0,0.,24.0
1979-07-03 01:41:08.750 ,6,1,0.,24.0,0.,24.0
1979-07-03 01:41:32.750 ,6,0,0.,24.0,0.,24.0
1979-07-03 01:41:56.750 ,7,1,0.,24.0,0.,24.0
1979-07-03 01:42:20.750 ,7,0,0.,24.0,0.,24.0
1979-07-03 01:42:44.750 ,7,1,0.,24.0,0.,24.0
1979-07-03 01:43:08.750 ,7,0,0.,24.0,0.,24.0
1979-07-03 01:43:32.750 ,6,1,0.,24.0,0.,24.0
1979-07-03 01:43:56.750 ,6,0,0.,24.0,0.,24.0
1979-07-03 01:44:20.750 ,5,1,0.,24.0,0.,24.0
1979-07-03 01:44:44.750 ,5,0,0.,24.0,0.,24.0
1979-07-03 01:45:08.750 ,4,1,0.,24.0,0.,24.0
1979-07-03 01:45:32.750 ,4,0,0.,24.0,0.,24.0
1979-07-03 01:45:56.750 ,3,1,0.,24.0,0.,24.0
1979-07-03 01:46:20.750 ,3,0,0.,24.0,0.,24.0
1979-07-03 01:46:44.750 ,2,1,0.,24.0,0.,24.0
1979-07-03 01:47:08.750 ,2,0,0.,24.0,0.,24.0
1979-07-03 01:47:32.750 ,1,1,0.,24.0,0.,24.0
1979-07-03 01:47:56.750 ,1,0,0.,24.0,0.,24.0
1979-07-03 01:48:20.750 ,0,1,0.,24.0,0.,24.0
1979-07-03 01:48:44.750 ,0,0,0.,24.0,0.,24.0
1979-07-03 01:49:08.750 ,0,1,0.,24.0,0.,24.0
1979-07-03 01:49:32.750 ,0,0,0.,24.0,0.,24.0
1979-07-03 01:49:56.750 ,1,1,0.,24.0,0.,24.0
1979-07-03 01:50:20.750 ,1,0,0.,24.0,0.,24.0
1979-07-03 01:50:44.750 ,2,1,0.,24.0,0.,24.0
1979-07-03 01:51:08.750 ,2,0,0.,24.0,0.,24.0
1979-07-03 01:51:32.750 ,3,1,0.,24.0,0.,24.0
1979-07-03 01:51:56.750 ,3,0,0.,24.0,0.,24.0
1979-07-03 01:52:20.750 ,4,1,0.,24.0,0.,24.0
1979-07-03 01:52:44.750 ,4,0,0.,24.0,0.,24.0
1979-07-03 01:53:08.750 ,5,1,0.,24.0,0.,24.0
1979-07-03 01:53:32.750 ,5,0,0.,24.0,0.,24.0
1979-07-03 01:53:56.750 ,6,1,0.,24.0,0.,24.0
1979-07-03 01:54:20.750 ,6,0,0.,24.0,0.,24.0
1979-07-03 01:54:44.750 ,7,0,0.,24.0,0.,24.0
1979-07-03 01:55:08.750 ,7,0,0.,24.0,0.,24.0
1979-07-03 01:55:32.750 ,3,1,0.,24.0,0.,24.0
1979-07-03 01:55:56.750 ,0,1,0.,24.0,0.,24.0
1979-07-03 01:56:20.750 ,4,1,0.,24.0,0.,24.0
1979-07-03 01:56:44.750 ,7,1,0.,24.0,0.,24.0
1979-07-03 01:57:08.750 ,3,1,0.,24.0,0.,24.0
1979-07-03 01:57:32.750 ,0,1,0.,24.0,0.,24.0
1979-07-03 01:57:56.750 ,4,1,0.,24.0,0.,24.0
1979-07-03 01:58:20.750 ,7,1,0.,24.0,0.,24.0
1979-07-03 01:58:44.750 ,3,1,0.,24.0,0.,24.0
1979-07-03 01:59:08.750 ,0,1,0.,24.0,0.,24.0
1979-07-03 01:59:32.750 ,4,1,0.,24.0,0.,24.0
1979-07-03 01:59:56.750 ,7,1,0.,24.0,0.,24.0
1979-07-03 02:00:20.750 ,3,1,0.,24.0,0.,24.0
1979-07-03 02:00:44.750 ,0,1,0.,24.0,0.,24.0
1979-07-03 02:01:08.750 ,4,1,0.,24.0,0.,24.0
1979-07-03 02:01:32.750 ,7,1,0.,24.0,0.,24.0
1979-07-03 02:01:56.750 ,3,1,0.,24.0,0.,24.0
1979-07-03 02:02:20.750 ,0,1,0.,24.0,0.,24.0
1979-07-03 02:02:44.750 ,4,1,0.,24.0,0.,24.0
1979-07-03 02:03:08.750 ,7,1,0.,24.0,0.,24.0
1979-07-03 02:03:32.750 ,3,1,0.,24.0,0.,24.0
1979-07-03 02:03:56.750 ,0,1,0.,24.0,0.,24.0
1979-07-03 02:04:20.750 ,4,1,0.,24.0,0.,24.0
1979-07-03 02:04:44.750 ,0,0,,0,,0
1979-07-03 02:05:08.750 ,0,0,0.,24.0,0.,24.0
1979-07-03 02:05:32.750 ,0,1,0.,24.0,0.,24.0
1979-07-03 02:05:56.750 ,0,0,0.,24.0,0.,24.0
1979-07-03 02:06:20.750 ,0,0,0.,24.0,0.,24.0
1979-07-03 02:06:44.750 ,5,1,0.,24.0,0.,24.0
1979-07-03 02:07:08.750 ,5,0,0.,24.0,0.,24.0
1979-07-03 02:07:32.750 ,4,1,0.,24.0,0.,24.0
1979-07-03 02:07:56.750 ,4,0,0.,24.0,0.,24.0
1979-07-03 02:08:20.750 ,3,1,0.,24.0,0.,24.0
1979-07-03 02:08:44.750 ,3,0,0.,24.0,0.,24.0
1979-07-03 02:09:08.750 ,2,1,0.,24.0,0.,24.0
1979-07-03 02:09:32.750 ,2,0,0.,24.0,0.,24.0
1979-07-03 02:09:56.750 ,1,1,0.,24.0,0.,24.0
1979-07-03 02:10:20.750 ,1,0,0.,24.0,0.,24.0
1979-07-03 02:10:44.750 ,0,1,0.,24.0,0.,24.0
1979-07-03 02:11:08.750 ,0,0,0.,24.0,0.,24.0
1979-07-03 02:11:32.750 ,0,1,0.,24.0,0.,24.0
1979-07-03 02:11:56.750 ,0,0,0.,24.0,0.,24.0
1979-07-03 02:12:20.750 ,1,1,0.,24.0,0.,24.0
1979-07-03 02:12:44.750 ,1,0,0.,24.0,0.,24.0
1979-07-03 02:13:08.750 ,2,1,0.,24.0,0.,24.0
1979-07-03 02:13:32.750 ,2,0,0.,24.0,0.,24.0
1979-07-03 02:13:56.750 ,3,1,0.,24.0,0.,24.0
1979-07-03 02:14:20.750 ,3,0,0.,24.0,0.,24.0
1979-07-03 02:14:44.750 ,4,1,0.,24.0,0.,24.0
1979-07-03 02:15:08.750 ,4,0,0.,24.0,0.,24.0
1979-07-03 02:15:32.750 ,5,1,0.,24.0,0.,24.0
1979-07-03 02:15:56.750 ,5,0,0.,24.0,0.,24.0
1979-07-03 02:16:20.750 ,6,1,0.,24.0,0.,24.0
1979-07-03 02:16:44.750 ,6,0,0.,24.0,0.,24.0
1979-07-03 02:17:08.750 ,7,1,0.,24.0,0.,24.0
1979-07-03 02:17:32.750 ,7,0,0.,24.0,0.,24.0
1979-07-03 02:17:56.750 ,7,1,0.,24.0,0.,24.0
1979-07-03 02:18:20.750 ,7,0,0.,24.0,0.,24.0
1979-07-03 02:18:44.750 ,6,1,0.,24.0,0.,24.0
1979-07-03 02:19:08.750 ,6,0,0.,24.0,0.,24.0
1979-07-03 02:19:32.750 ,5,1,0.,24.0,0.,24.0
1979-07-03 02:19:56.750 ,5,0,0.,24.0,0.,24.0
1979-07-03 02:20:20.750 ,4,1,0.,24.0,0.,24.0
1979-07-03 02:20:44.750 ,4,0,0.,24.0,0.,24.0
1979-07-03 02:21:08.750 ,3,1,0.,24.0,0.,24.0
1979-07-03 02:21:32.750 ,3,0,0.,24.0,0.,24.0
1979-07-03 02:21:56.750 ,2,1,0.,24.0,0.,24.0
1979-07-03 02:22:20.750 ,2,0,0.,24.0,0.,24.0
1979-07-03 02:22:44.750 ,1,1,0.,24.0,0.,24.0
1979-07-03 02:23:08.750 ,1,0,0.,24.0,0.,24.0
1979-07-03 02:23:32.750 ,0,1,0.,24.0,0.,24.0
1979-07-03 02:23:56.750 ,0,0,0.,24.0,0.,24.0
1979-07-03 02:24:20.750 ,0,1,0.,24.0,0.,24.0
1979-07-03 02:24:44.750 ,0,0,0.,24.0,0.,24.0
1979-07-03 02:25:08.750 ,1,1,0.,24.0,0.,24.0
1979-07-03 02:25:32.750 ,1,0,0.,24.0,0.,24.0
1979-07-03 02:25:56.750 ,2,1,0.,24.0,0.,24.0
1979-07-03 02:26:20.750 ,2,0,0.,24.0,0.,24.0
1979-07-03 02:26:44.750 ,3,1,0.,24.0,0.,24.0
1979-07-03 02:27:08.750 ,3,0,0.,24.0,0.,24.0
1979-07-03 02:27:32.750 ,4,1,0.,24.0,0.,24.0
1979-07-03 02:27:56.750 ,4,0,0.,24.0,0.,24.0
1979-07-03 02:28:20.750 ,5,1,0.,24.0,0.,24.0
1979-07-03 02:28:44.750 ,5,0,0.,24.0,0.,24.0
1979-07-03 02:29:08.750 ,6,1,0.,24.0,0.,24.0
1979-07-03 02:29:32.750 ,6,0,0.,24.0,0.,24.0
1979-07-03 02:29:56.750 ,7,1,0.,24.0,0.,24.0
1979-07-03 02:30:20.750 ,7,0,0.,24.0,0.,24.0
1979-07-03 02:30:44.750 ,7,1,0.,24.0,0.,24.0
1979-07-03 02:31:08.750 ,7,0,0.,24.0,0.,24.0
1979-07-03 02:31:32.750 ,6,1,0.,24.0,0.,24.0
1979-07-03 02:31:56.750 ,6,0,0.,24.0,0.,24.0
1979-07-03 02:32:20.750 ,5,1,0.,24.0,0.,24.0
1979-07-03 02:32:44.750 ,5,0,0.,24.0,0.,24.0
1979-07-03 02:33:08.750 ,4,1,0.,24.0,0.,24.0
1979-07-03 02:33:32.750 ,4,0,0.,24.0,0.,24.0
1979-07-03 02:33:56.750 ,3,1,0.,24.0,0.,24.0
1979-07-03 02:34:20.750 ,3,0,0.,24.0,0.,24.0
1979-07-03 02:34:44.750 ,2,1,0.,24.0,0.,24.0
1979-07-03 02:35:08.750 ,2,0,0.,24.0,0.,24.0
1979-07-03 02:35:32.750 ,1,1,0.,24.0,0.,24.0
1979-07-03 02:35:56.750 ,1,0,0.,24.0,0.,24.0
1979-07-03 02:36:20.750 ,0,1,0.,24.0,0.,24.0
1979-07-03 02:36:44.750 ,0,0,0.,24.0,0.,24.0
1979-07-03 02:37:08.750 ,0,1,0.,24.0,0.,24.0
1979-07-03 02:37:32.750 ,0,0,0.,24.0,0.,24.0
1979-07-03 02:37:56.750 ,1,1,0.,24.0,0.,24.0
1979-07-03 02:38:20.750 ,1,0,0.,24.0,0.,24.0
1979-07-03 02:38:44.750 ,2,1,0.,24.0,0.,24.0
1979-07-03 02:39:08.750 ,2,0,1.,24.0,0.,24.0
1979-07-03 02:39:32.750 ,3,1,0.,24.0,0.,24.0
1979-07-03 02:39:56.750 ,3,0,0.,24.0,0.,24.0
1979-07-03 02:40:20.750 ,4,1,0.,24.0,0.,24.0
1979-07-03 02:40:44.750 ,4,0,0.,24.0,0.,24.0
1979-07-03 02:41:08.750 ,5,1,0.,24.0,0.,24.0
1979-07-03 02:41:32.750 ,5,0,0.,24.0,0.,24.0
1979-07-03 02:41:56.750 ,6,1,0.,24.0,0.,24.0
1979-07-03 02:42:20.750 ,6,0,0.,24.0,0.,24.0
1979-07-03 02:42:44.750 ,7,0,0.,24.0,0.,24.0
1979-07-03 02:43:08.750 ,7,0,0.,24.0,0.,24.0
1979-07-03 02:43:32.750 ,3,1,0.,24.0,0.,24.0
1979-07-03 02:43:56.750 ,0,1,0.,24.0,0.,24.0
1979-07-03 02:44:20.750 ,4,1,0.,24.0,0.,24.0
1979-07-03 02:44:44.750 ,7,1,0.,24.0,0.,24.0
1979-07-03 02:45:08.750 ,3,1,0.,24.0,0.,24.0
1979-07-03 02:45:32.750 ,0,1,0.,24.0,0.,24.0
1979-07-03 02:45:56.750 ,4,1,0.,24.0,0.,24.0
1979-07-03 02:46:20.750 ,7,1,0.,24.0,0.,24.0
1979-07-03 02:46:44.750 ,3,1,0.,24.0,0.,24.0
1979-07-03 02:47:08.750 ,0,1,0.,24.0,0.,24.0
1979-07-03 02:48:20.750 ,0,0,0.,24.0,0.,24.0
1979-07-03 02:48:44.750 ,0,1,0.,24.0,0.,24.0
1979-07-03 02:49:08.750 ,4,1,0.,24.0,0.,24.0
1979-07-03 02:49:32.750 ,7,1,0.,24.0,0.,24.0
1979-07-03 02:49:56.750 ,3,1,0.,24.0,0.,24.0
1979-07-03 02:50:20.750 ,0,1,0.,24.0,0.,24.0
1979-07-03 02:50:44.750 ,4,1,0.,24.0,0.,24.0
1979-07-03 02:51:08.750 ,7,1,0.,24.0,0.,24.0
1979-07-03 02:51:32.750 ,3,1,0.,24.0,0.,24.0
1979-07-03 02:51:56.750 ,0,1,0.,24.0,0.,24.0
1979-07-03 02:52:20.750 ,4,1,0.,24.0,0.,24.0
1979-07-03 02:52:44.750 ,7,1,0.,24.0,0.,24.0
1979-07-03 02:53:08.750 ,3,1,0.,24.0,0.,24.0
1979-07-03 02:53:32.750 ,0,1,0.,24.0,0.,24.0
1979-07-03 02:53:56.750 ,0,0,0.,24.0,0.,24.0
1979-07-03 02:54:20.750 ,0,0,0.,24.0,0.,24.0
1979-07-03 02:54:44.750 ,5,1,0.,24.0,0.,24.0
1979-07-03 02:55:08.750 ,5,0,0.,24.0,0.,24.0
1979-07-03 02:55:32.750 ,4,1,0.,24.0,0.,24.0
1979-07-03 02:55:56.750 ,4,0,0.,24.0,0.,24.0
1979-07-03 02:56:20.750 ,3,1,0.,24.0,0.,24.0
1979-07-03 02:56:44.750 ,0,0,,0,,0
1979-07-03 02:56:47.150 ,0,0,,0,,0
1979-07-03 02:56:47.150 ,0,0,,0,,0
1979-07-03 02:56:47.750 ,0,0,0.,24.0,0.,24.0
1979-07-03 02:57:08.750 ,2,1,0.,24.0,0.,24.0
1979-07-03 02:57:32.750 ,2,0,0.,24.0,0.,24.0
1979-07-03 02:57:56.750 ,1,1,0.,24.0,0.,24.0
1979-07-03 02:58:20.750 ,1,0,0.,24.0,0.,24.0
1979-07-03 02:58:44.750 ,0,1,0.,24.0,0.,24.0
1979-07-03 02:59:08.750 ,0,0,0.,24.0,0.,24.0
1979-07-03 02:59:32.750 ,0,1,0.,24.0,0.,24.0
1979-07-03 02:59:56.750 ,0,0,0.,24.0,0.,24.0
1979-07-03 03:00:20.750 ,1,1,0.,24.0,0.,24.0
